Terminal Aerodrome Forecast
Issued by NWS

Home | Current Version | Previous Version | Graphics & Text | Print | Product List | Glossary On
Versions: 1 2 3 4 5 6 7 8 9 10 11 12 13 14
000
FTUS45 KGGW 291100
TAFGDV
TAF
KGDV 291138Z 2912/3012 VRB06KT P6SM SCT200
     FM291400 22008KT P6SM VCSH BKN050 OVC080
     FM291800 27015G25KT P6SM BKN060
     FM300100 31012KT P6SM SCT150
      AMD LTD TO CLD VIS AND WIND=

USA.gov is the U.S. government's official web portal to all federal, state and local government web resources and services.